Location: Asni�res
(49.1337°N, 2.3555°E)
Time: 00:59:45
(UTC+00:00)

Cosmos 494 Rocket - Pass Details

Date: 16 October 2021
Orbit: 743 x 770 km, 74.1° (Epoch: 06 December)

Event Time Altitude Azimuth Distance (km) Brightness Sun altitude
Rises 17:44:26 0° 337° (NNW) 3,245 7.5 -8.3°
Reaches altitude 10° 17:46:50 10° 339° (NNW) 2,311 6.7 -8.7°
Maximum altitude 17:52:05 79° 66° (ENE) 779 3.9 -9.5°
Drops below altitude 10° 17:57:16 10° 154° (SSE) 2,277 6.2 -10.4°
Sets 17:59:37 0° 155° (SSE) 3,193 7.0 -10.8°
